Location: Rumah Dana
(3.1167°N, 113.0167°E)
Time: 04:11:50
(UTC+00:00)

Cosmos 2082 Rocket - Pass Details

Date: 20 January 2026
Orbit: 832 x 853 km, 71.0° (Epoch: 11 February)

Event Time Altitude Azimuth Distance (km) Brightness Sun altitude
Rises 11:32:26 0° 210° (SSW) 3,373 6.2 -13.6°
Reaches altitude 10° 11:35:00 10° 217° (SW) 2,436 5.5 -14.2°
Maximum altitude 11:40:12 40° 286° (WNW) 1,201 3.5 -15.4°
Drops below altitude 10° 11:45:23 10° 355° (N) 2,428 4.4 -16.7°
Sets 11:47:57 0° 2° (N) 3,361 5.1 -17.3°
